Regional Weather Roundup
Issued by NWS

Home | Current Version | Previous Version | Text Only | Print | Product List | Glossary Off
Versions: 1 2 3 4 5 6 7 8 9 10 11 12 13 14 15 16 17 18 19 20 21 22 23 24 25 26 27 28 29 30 31 32 33 34 35 36 37 38 39 40 41 42 43 44 45 46 47 48 49 50

000
ASUS43 KLSX 202259
RWRMO

WEATHER SUMMARY FOR MISSOURI
NATIONAL WEATHER SERVICE SPRINGFIELD MO
500 PM CST SAT DEC 20 2014

NOTE: "FAIR" INDICATES FEW OR NO CLOUDS BELOW 12,000 FEET WITH NO
       SIGNIFICANT WEATHER AND/OR OBSTRUCTIONS TO VISIBILITY.
       CURRENT SKY AND/OR WEATHER CONDITIONS ARE NOT AVAILABLE FOR
       CHILLICOTHE AND FARMINGTON.

MOZ001>031-035>038-043-044-053-054-210000-
...NORTHERN AND WESTERN MISSOURI...

CITY           SKY/WX    TMP DP  RH WIND       PRES   REMARKS
KANSAS CTY INT CLOUDY    44  39  82 S9        30.11S
KANSAS C DTWN  CLOUDY    46  38  73 S10       30.12S
LEE`S SUMMIT   CLOUDY    42  36  79 S9        30.13S
ST JOSEPH      CLOUDY    42  37  82 CALM      30.11S
CHILLICOTHE      N/A     39  36  89 SE7       30.16S
KIRKSVILLE     CLOUDY    37  36  96 SW7       30.17R

$$
MOZ066>068-077>081-088>096-101>105-210000-
...SOUTHWEST MISSOURI...

CITY           SKY/WX    TMP DP  RH WIND       PRES   REMARKS
SPRINGFIELD    CLOUDY    42  36  79 S6        30.17R
JOPLIN         CLOUDY    43  35  73 S9        30.18R

$$
MOZ032>034-039>042-045>050-055>058-069>072-210000-
...CENTRAL MISSOURI...

CITY           SKY/WX    TMP DP  RH WIND       PRES   REMARKS
COLUMBIA       CLOUDY    41  36  82 S6        30.18S
JEFFERSON CITY CLOUDY    43  35  73 S3        30.20S
ROLLA          CLOUDY    40  35  83 CALM      30.17S
SEDALIA        CLOUDY    41  34  76 S12       30.18R
WARRENSBURG    CLOUDY    37  34  87 S9        30.17S
OSAGE BEACH    CLOUDY    43  34  70 S6        30.19R

$$
MOZ051-052-059>065-210000-
...EAST CENTRAL MISSOURI...

CITY           SKY/WX    TMP DP  RH WIND       PRES   REMARKS
ST LOUIS INTL  CLOUDY    42  33  70 SE6       30.23S
SPIRIT OF STL  CLOUDY    42  33  70 SE5       30.22S
ST CHARLES     CLOUDY    40  35  83 E6        30.23S

$$
MOZ072>076-082>087-097>100-106>115-210000-
...SOUTH CENTRAL AND SOUTHEAST MISSOURI...

CITY           SKY/WX    TMP DP  RH WIND       PRES   REMARKS
CAPE GIRARDEAU CLOUDY    42  34  73 SE6       30.25S
FARMINGTON     CLOUDY    39  34  81 E5        30.23S
POPLAR BLUFF   CLOUDY    43  32  65 CALM      30.24S
WEST PLAINS    CLOUDY    41  36  82 SW5       30.20S

$$


USA.gov is the U.S. government's official web portal to all federal, state and local government web resources and services.